Location: Sawmill Trailhead
(33.5800°N, 116.4497°W)
Time: 19:11:02
(UTC-07:00)

Amateur Radio Satellites - All Passes

Search period start: 26 June 2016 18:41
Search period end: 27 June 2016 18:41
Location: Sawmill Trailhead, 33.5800°N, 116.4497°W

Satellite Date Start Highest point End Downlink Frequencies (MHz)
Time Altitude Azimuth
Cubesat XI-IV 26 Jun 18:42:18 18:47:33 60° 259° (W) 18:52:51 437.490
RS-15 26 Jun 18:54:36 19:02:34 19° 29° (NNE) 19:10:32 29.354- 29.394
GOMX 1 26 Jun 19:05:09 19:09:49 50° 260° (W) 19:14:11 467.674
SRMSAT 26 Jun 19:05:51 19:10:01 20° 174° (S) 19:14:11 437.500
Cosmos 2499 26 Jun 19:07:40 19:15:42 72° 93° (E) 19:24:20 435.465 / 435.565
HO-68 26 Jun 19:16:09 19:22:36 38° 67° (ENE) 19:29:05 435.675
CUTE-I 26 Jun 19:18:23 19:22:48 26° 264° (W) 19:27:15 437.470
CUBESAT XI-V 26 Jun 19:31:51 19:33:32 12° 294° (WNW) 19:35:12 437.345
GONETS M04 26 Jun 19:40:42 19:49:01 49° 281° (WNW) 19:57:23
CANX-2 26 Jun 19:43:20 19:47:25 47° 75° (ENE) 19:51:34 2200.000
JUGNU 26 Jun 19:44:18 19:48:03 17° 190° (S) 19:51:47 437.505
CINEMA 3 26 Jun 19:50:07 19:54:12 56° 75° (ENE) 19:58:15 145.822/145.860
CUSAT 1 26 Jun 19:52:42 19:54:57 17° 273° (W) 19:56:56 437.405
COMPASS 1 26 Jun 19:54:01 19:57:31 26° 71° (ENE) 20:01:02 437.405
DANDE 26 Jun 19:54:26 19:59:16 71° 266° (W) 20:02:51 436.750
STRAND 1 26 Jun 19:58:22 20:03:32 76° 102° (ESE) 20:08:39 437.568
M-CUBED/EXP-1 PRIME 26 Jun 20:00:47 20:03:00 17° 66° (ENE) 20:05:13 437.505
CUBEBUG 2 26 Jun 20:02:24 20:05:28 20° 70° (ENE) 20:08:35 437.445
CUTE 1.7 + AOD 2 26 Jun 20:03:35 20:07:50 74° 76° (ENE) 20:12:07 437.475
SEEDS 26 Jun 20:11:29 20:15:40 64° 76° (ENE) 20:19:53 437.485
PRISM 26 Jun 20:16:56 20:18:58 13° 94° (E) 20:20:59 437.425
DOVE 4 26 Jun 20:18:01 20:20:52 17° 265° (W) 20:23:41 437.250
ZACube-1 26 Jun 20:37:36 20:40:53 23° 70° (ENE) 20:44:13 437.345
AO-85 26 Jun 20:50:39 20:54:53 24° 109° (ESE) 20:59:06 145.980
Oscar 11 26 Jun 20:50:47 20:54:46 37° 73° (ENE) 20:58:47 145.826/435.025
UWE-3 26 Jun 20:53:02 20:57:06 57° 75° (ENE) 21:01:14 435.000/436.395/437.385
SRMSAT 26 Jun 20:54:17 20:58:32 20° 184° (S) 21:02:47 437.500
FUNcube-1 26 Jun 20:55:44 20:59:32 35° 73° (ENE) 21:03:23 145.935
AUBIESAT-1 26 Jun 20:56:25 20:59:45 87° 249° (WSW) 21:03:03 437.475
AAUSAT CUBESAT 2 26 Jun 20:56:38 21:00:47 65° 259° (W) 21:04:57 437.432
Cosmos 2499 26 Jun 21:03:50 21:09:38 20° 292° (WNW) 21:15:42 435.465 / 435.565
HO-68 26 Jun 21:03:53 21:10:14 35° 262° (W) 21:16:39 435.675
RS-15 26 Jun 21:06:11 21:18:25 61° 56° (NE) 21:30:24 29.354- 29.394
CANX-2 26 Jun 21:22:16 21:23:30 11° 268° (W) 21:24:44 2200.000
DELFI C3 26 Jun 21:25:42 21:29:28 40° 74° (ENE) 21:33:15 145.870
COMPASS 1 26 Jun 21:29:54 21:33:00 20° 265° (W) 21:36:09 437.405
M-CUBED/EXP-1 PRIME 26 Jun 21:35:12 21:37:28 17° 259° (WSW) 21:39:43 437.505
CUBEBUG 2 26 Jun 21:38:33 21:41:56 24° 264° (W) 21:45:23 437.445
STRAND 1 26 Jun 21:40:40 21:42:00 11° 297° (WNW) 21:43:19 437.568
PRISM 26 Jun 21:50:38 21:54:22 35° 287° (WNW) 21:58:04 437.425
TIGRISAT 26 Jun 21:59:56 22:02:15 14° 93° (E) 22:04:34 435.000
UNISAT 6 26 Jun 22:03:50 22:06:45 16° 94° (E) 22:09:41 437.425
HUMSAT D 26 Jun 22:07:23 22:11:26 58° 75° (ENE) 22:15:34 437.325/437.525
ZACube-1 26 Jun 22:13:46 22:17:03 22° 265° (W) 22:20:23 437.345
Oscar 11 26 Jun 22:28:33 22:30:59 15° 266° (W) 22:33:27 145.826/435.025
AO-85 26 Jun 22:30:01 22:35:08 41° 303° (WNW) 22:40:09 145.980
FUNcube-1 26 Jun 22:33:37 22:35:53 14° 267° (W) 22:38:10 145.935
CUBEBUG 1 26 Jun 22:33:53 22:35:35 12° 67° (ENE) 22:37:18 437.445
VELOX 1 26 Jun 22:36:38 22:38:25 12° 66° (ENE) 22:40:12 145.980
50 SAT 26 Jun 22:39:28 22:40:42 11° 68° (ENE) 22:41:58 437.505
ANTELSAT 26 Jun 22:42:25 22:46:53 45° 99° (E) 22:51:23 437.575/2403.000
SRMSAT 26 Jun 22:44:11 22:47:01 14° 194° (SSW) 22:49:51 437.500
ESTCUBE 1 26 Jun 23:02:15 23:06:30 41° 73° (ENE) 23:10:46 437.505/2401.250
DELFI C3 26 Jun 23:03:00 23:04:28 12° 267° (W) 23:05:55 145.870
Cosmos 2491 26 Jun 23:11:46 23:14:47 12° 78° (ENE) 23:17:46 435.465 / 435.565
AISAT 26 Jun 23:14:41 23:18:43 36° 72° (ENE) 23:22:44 437.250
RS-15 26 Jun 23:19:34 23:30:14 37° 255° (WSW) 23:40:46 29.354- 29.394
UKube-1 26 Jun 23:25:46 23:29:27 28° 71° (ENE) 23:33:07 .
SPROUT 26 Jun 23:31:36 23:34:46 21° 70° (ENE) 23:37:56 437.525
TIGRISAT 26 Jun 23:34:38 23:39:06 48° 286° (WNW) 23:43:36 435.000
UNISAT 6 26 Jun 23:39:13 23:43:33 40° 287° (WNW) 23:47:54 437.425
DX 1 26 Jun 23:41:22 23:45:36 55° 74° (ENE) 23:49:52 434.975-435.025
YUBILEINY 26 Jun 23:58:09 00:06:47 54° 80° (E) 00:15:21 435.215
BUGSAT 1 27 Jun 00:07:10 00:10:25 22° 97° (E) 00:13:41 437.445
CUBEBUG 1 27 Jun 00:07:11 00:11:24 49° 260° (W) 00:15:38 437.445
VELOX 1 27 Jun 00:10:07 00:14:24 50° 260° (W) 00:18:42 145.980
50 SAT 27 Jun 00:10:34 00:14:00 36° 261° (W) 00:17:28 437.505
NANOSAT C BR1 27 Jun 00:16:26 00:20:41 81° 103° (ESE) 00:24:56 145.865
QB50P1 27 Jun 00:18:17 00:22:34 90° 165° (SSE) 00:26:49 145.935-145.965
ANTELSAT 27 Jun 00:20:30 00:23:11 15° 293° (WNW) 00:25:52 437.575/2403.000
POPSAT HIP 1 27 Jun 00:21:19 00:25:35 85° 285° (WNW) 00:29:52 437.405
Cosmos 2504 27 Jun 00:23:50 00:30:37 24° 70° (ENE) 00:37:10 435.465 / 435.565
QB50P2 27 Jun 00:33:14 00:37:25 55° 285° (WNW) 00:41:35 145.880/145.840
POLYITAN 1 27 Jun 00:35:52 00:40:02 53° 285° (WNW) 00:44:12 437.675
DUCHIFAT 1 27 Jun 00:38:02 00:42:11 58° 285° (WNW) 00:46:20 145.980
ESTCUBE 1 27 Jun 00:40:55 00:43:26 15° 266° (W) 00:45:58 437.505/2401.250
AISAT 27 Jun 00:52:35 00:55:16 16° 266° (W) 00:57:57 437.250
JAS-2 27 Jun 00:52:55 00:58:00 36° 97° (E) 01:02:46 435.910
TISAT 1 27 Jun 00:57:51 01:01:53 52° 75° (ENE) 01:05:56 437.305
Cosmos 2491 27 Jun 01:01:23 01:10:09 83° 95° (E) 01:18:56 435.465 / 435.565
UKube-1 27 Jun 01:02:17 01:05:26 20° 264° (W) 01:08:36 .
SPROUT 27 Jun 01:06:59 01:10:32 26° 263° (W) 01:14:05 437.525
PCSat 27 Jun 01:10:02 01:13:07 15° 104° (ESE) 01:16:12 145.827
Oscar 19 27 Jun 01:33:10 01:37:42 31° 98° (E) 01:42:13 437.125/150
SO-50 27 Jun 01:35:02 01:39:40 74° 60° (ENE) 01:44:08 436.795
Gurwin Techsat 1B 27 Jun 01:37:06 01:39:41 14° 92° (E) 01:42:16 435.225
BUGSAT 1 27 Jun 01:42:29 01:45:40 22° 289° (WNW) 01:48:53 437.445
YUBILEINY 27 Jun 01:55:56 02:02:59 28° 276° (W) 02:10:02 435.215
O/OREOS (USA 219) 27 Jun 01:58:02 02:00:44 16° 100° (E) 02:03:26 437.305
SWISSCUBE 27 Jun 02:07:50 02:12:34 64° 75° (ENE) 02:17:19 437.505
Cosmos 2504 27 Jun 02:15:51 02:24:36 65° 268° (W) 02:32:56 435.465 / 435.565
ITUPSAT 1 27 Jun 02:33:07 02:37:55 77° 258° (WSW) 02:42:44 437.325
BEESAT 27 Jun 02:33:19 02:38:04 75° 257° (WSW) 02:42:53 436.000
JAS-2 27 Jun 02:38:37 02:42:48 22° 294° (WNW) 02:46:46 435.910
PCSat 27 Jun 02:50:39 02:55:58 56° 298° (WNW) 03:01:19 145.827
BEESAT 3 27 Jun 02:51:05 02:54:59 88° 301° (WNW) 02:58:56 437.485
Cosmos 2491 27 Jun 03:02:38 03:07:56 17° 292° (WNW) 03:13:16 435.465 / 435.565
Oscar 19 27 Jun 03:12:43 03:16:50 25° 291° (WNW) 03:20:56 437.125/150
Gurwin Techsat 1B 27 Jun 03:14:43 03:19:56 59° 286° (WNW) 03:25:09 435.225
BEESAT 2 27 Jun 03:25:26 03:29:22 66° 300° (WNW) 03:33:19 435.950
MOZHAYETS 4 27 Jun 03:28:23 03:32:40 39° 73° (ENE) 03:36:59
ITAMSAT 1 27 Jun 03:30:28 03:35:42 67° 102° (ESE) 03:40:52 435.822/435.867
AIST 1 27 Jun 03:34:44 03:36:36 13° 74° (ENE) 03:38:27
O/OREOS (USA 219) 27 Jun 03:35:36 03:39:46 37° 294° (WNW) 03:43:56 437.305
AO-7 27 Jun 03:43:40 03:51:13 36° 99° (E) 03:58:43 29.400- 29.500
SWISSCUBE 27 Jun 03:50:18 03:50:43 10° 268° (W) 03:51:06 437.505
KKS-1 27 Jun 03:50:32 03:54:57 85° 74° (ENE) 03:59:23 437.445
GONETS M04 27 Jun 04:04:49 04:05:41 10° 63° (ENE) 04:06:33
STARS 27 Jun 04:27:25 04:31:45 74° 257° (WSW) 04:36:07 437.465
CUBESAT XI-V 27 Jun 04:51:24 04:55:39 34° 72° (ENE) 04:59:54 437.345
Cosmos 2499 27 Jun 05:05:36 05:11:49 21° 69° (ENE) 05:17:46 435.465 / 435.565
MOZHAYETS 4 27 Jun 05:07:08 05:09:56 16° 266° (W) 05:12:45
AIST 1 27 Jun 05:10:23 05:14:20 39° 268° (W) 05:18:18
HORYU 2 27 Jun 05:11:07 05:15:20 39° 99° (E) 05:19:32 437.375
ITAMSAT 1 27 Jun 05:12:16 05:14:31 13° 297° (WNW) 05:16:47 435.822/435.867
AIST 2 27 Jun 05:31:11 05:35:13 56° 300° (WNW) 05:39:17 435.215
AO-7 27 Jun 05:36:11 05:43:57 44° 295° (WNW) 05:51:41 29.400- 29.500
PHONESAT 2.4 27 Jun 05:36:59 05:37:46 11° 141° (SE) 05:38:34 2401.200-2431.200
GONETS M04 27 Jun 05:55:21 06:04:04 70° 82° (E) 06:12:47
CUTE-I 27 Jun 06:00:01 06:03:32 18° 94° (E) 06:07:02 437.470
BRITE-PL 27 Jun 06:28:53 06:32:52 45° 99° (E) 06:36:54 437.365/2234.400
CUBESAT XI-V 27 Jun 06:29:45 06:33:03 19° 266° (W) 06:36:23 437.345
NOAA 15 27 Jun 06:32:17 06:37:25 53° 101° (E) 06:42:31 137.62
DOVE 4 27 Jun 06:43:18 06:44:48 11° 94° (E) 06:46:20 437.250
NOAA 18 27 Jun 06:45:01 06:50:28 55° 101° (E) 06:55:54 137.9125
HORYU 2 27 Jun 06:48:47 06:51:32 16° 293° (WNW) 06:54:16 437.375
Cosmos 2499 27 Jun 06:57:01 07:05:43 71° 267° (W) 07:13:50 435.465 / 435.565
CUSAT 1 27 Jun 07:03:30 07:10:55 44° 93° (E) 07:17:33 437.405
Cubesat XI-IV 27 Jun 07:03:31 07:08:56 78° 103° (ESE) 07:14:18 437.490
AO-85 27 Jun 07:06:09 07:10:32 60° 60° (ENE) 07:14:31 145.980
STRAND 1 27 Jun 07:10:04 07:15:10 71° 75° (ENE) 07:20:18 437.568
GOMX 1 27 Jun 07:10:24 07:14:34 60° 101° (E) 07:18:55 467.674
PHONESAT 2.4 27 Jun 07:10:57 07:14:00 82° 157° (SSE) 07:17:05 2401.200-2431.200
DANDE 27 Jun 07:12:02 07:18:36 27° 87° (E) 07:25:03 436.750
LilacSat-2 27 Jun 07:13:09 07:16:59 64° 284° (WNW) 07:20:50 437.200
CANX-2 27 Jun 07:34:43 07:36:04 11° 92° (E) 07:37:24 2200.000
CUTE-I 27 Jun 07:38:37 07:43:46 47° 287° (WNW) 07:48:53 437.470
CINEMA 3 27 Jun 07:48:48 07:52:10 20° 95° (E) 07:55:37 145.822/145.860
CUTE 1.7 + AOD 2 27 Jun 07:53:40 07:56:31 17° 94° (E) 07:59:20 437.475
GONETS M04 27 Jun 07:54:09 07:59:56 20° 279° (W) 08:05:46
ISS 27 Jun 07:56:46 07:59:17 21° 129° (SE) 08:01:47 145.825
SEEDS 27 Jun 08:00:56 08:03:15 14° 93° (E) 08:05:33 437.485
BRITE-PL 27 Jun 08:09:46 08:10:57 11° 293° (WNW) 08:12:09 437.365/2234.400
NOAA 15 27 Jun 08:13:37 08:16:42 16° 295° (WNW) 08:19:46 137.62
DOVE 4 27 Jun 08:18:28 08:22:39 49° 285° (WNW) 08:27:03 437.250
NOAA 18 27 Jun 08:27:08 08:30:36 17° 296° (WNW) 08:34:06 137.9125
HO-68 27 Jun 08:34:57 08:42:03 58° 102° (ESE) 08:49:06 435.675
PRISM 27 Jun 08:35:19 08:39:28 88° 82° (E) 08:43:39 437.425
AAUSAT CUBESAT 2 27 Jun 08:43:25 08:46:53 25° 96° (E) 08:50:19 437.432
CUSAT 1 27 Jun 08:45:58 08:52:58 34° 284° (WNW) 08:59:13 437.405
Cubesat XI-IV 27 Jun 08:46:32 08:48:15 12° 298° (WNW) 08:49:59 437.490
UWE-3 27 Jun 08:47:20 08:50:23 17° 94° (E) 08:53:27 435.000/436.395/437.385
PHONESAT 2.4 27 Jun 08:48:11 08:50:50 26° 349° (N) 08:53:30 2401.200-2431.200
FUNcube-1 27 Jun 08:50:41 08:51:02 10° 92° (E) 08:51:23 145.935
DANDE 27 Jun 08:52:41 09:00:55 62° 280° (W) 09:08:56 436.750
STRAND 1 27 Jun 08:54:07 08:54:45 10° 269° (W) 08:55:22 437.568
CANX-2 27 Jun 09:08:00 09:12:07 46° 285° (WNW) 09:16:12 2200.000
COMPASS 1 27 Jun 09:15:26 09:19:39 86° 103° (ESE) 09:23:48 437.405
M-CUBED/EXP-1 PRIME 27 Jun 09:15:53 09:19:27 31° 104° (ESE) 09:23:15 437.505
CINEMA 3 27 Jun 09:25:13 09:29:17 33° 287° (WNW) 09:33:30 145.822/145.860
CUTE 1.7 + AOD 2 27 Jun 09:28:35 09:32:22 31° 288° (WNW) 09:36:06 437.475
CUBEBUG 2 27 Jun 09:31:49 09:36:27 86° 102° (ESE) 09:41:11 437.445
ISS 27 Jun 09:32:44 09:35:35 27° 323° (NW) 09:38:27 145.825
SEEDS 27 Jun 09:35:09 09:39:02 36° 287° (WNW) 09:42:53 437.485
ANTELSAT 27 Jun 09:38:02 09:41:25 23° 70° (ENE) 09:44:51 437.575/2403.000
HUMSAT D 27 Jun 09:56:28 09:58:33 13° 93° (E) 10:00:37 437.325/437.525
ZACube-1 27 Jun 10:04:36 10:09:10 89° 90° (E) 10:13:46 437.345
AUBIESAT-1 27 Jun 10:11:57 10:15:51 61° 289° (WNW) 10:20:03 437.475
Oscar 11 27 Jun 10:17:35 10:21:52 59° 285° (WNW) 10:26:07 145.826/435.025
AAUSAT CUBESAT 2 27 Jun 10:19:07 10:22:11 20° 290° (WNW) 10:25:14 437.432
UWE-3 27 Jun 10:22:40 10:26:53 37° 287° (WNW) 10:31:09 435.000/436.395/437.385
FUNcube-1 27 Jun 10:23:04 10:27:33 60° 285° (WNW) 10:32:02 145.935
HO-68 27 Jun 10:23:47 10:29:12 24° 298° (WNW) 10:34:37 435.675
PHONESAT 2.4 27 Jun 10:25:28 10:28:00 23° 6° (N) 10:30:32 2401.200-2431.200
TIGRISAT 27 Jun 10:29:03 10:33:18 89° 263° (W) 10:37:40 435.000
UNISAT 6 27 Jun 10:33:42 10:37:58 73° 259° (W) 10:42:19 437.425
DELFI C3 27 Jun 10:41:46 10:45:44 67° 284° (WNW) 10:49:39 145.870
DANDE 27 Jun 10:43:53 10:44:59 10° 296° (WNW) 10:46:05 436.750
M-CUBED/EXP-1 PRIME 27 Jun 10:51:11 10:53:47 17° 294° (WNW) 10:56:31 437.505
ESTCUBE 1 27 Jun 11:00:55 11:02:31 12° 92° (E) 11:04:06 437.505/2401.250
JAS-2 27 Jun 11:01:57 11:05:51 15° 62° (ENE) 11:09:38 435.910
NANOSAT C BR1 27 Jun 11:04:45 11:08:29 33° 73° (ENE) 11:12:15 145.865
QB50P1 27 Jun 11:06:48 11:10:39 37° 73° (ENE) 11:14:32 145.935-145.965
POPSAT HIP 1 27 Jun 11:09:50 11:13:44 40° 73° (ENE) 11:17:39 437.405
BEESAT 3 27 Jun 11:13:07 11:15:33 16° 51° (NE) 11:17:58 437.485
ANTELSAT 27 Jun 11:14:33 11:18:00 24° 264° (W) 11:21:30 437.575/2403.000
Cosmos 2491 27 Jun 11:17:26 11:25:07 33° 75° (ENE) 11:32:44 435.465 / 435.565
QB50P2 27 Jun 11:21:32 11:25:40 62° 75° (ENE) 11:29:49 145.880/145.840
RS-15 27 Jun 11:23:57 11:34:45 56° 110° (ESE) 11:46:07 29.354- 29.394
POLYITAN 1 27 Jun 11:24:09 11:28:17 64° 76° (ENE) 11:32:26 437.675
DUCHIFAT 1 27 Jun 11:25:37 11:29:41 57° 75° (ENE) 11:33:47 145.980
HUMSAT D 27 Jun 11:30:15 11:34:18 41° 286° (WNW) 11:38:20 437.325/437.525
DX 1 27 Jun 11:35:19 11:37:19 13° 94° (E) 11:39:19 434.975-435.025
PCSat 27 Jun 11:42:31 11:47:46 48° 61° (ENE) 11:52:58 145.827
50 SAT 27 Jun 11:43:49 11:46:46 22° 96° (E) 11:49:42 437.505
BEESAT 2 27 Jun 11:47:48 11:50:49 20° 53° (NE) 11:53:48 435.950
CUBEBUG 1 27 Jun 11:59:43 12:03:45 38° 99° (E) 12:07:47 437.445
PHONESAT 2.4 27 Jun 12:01:55 12:04:58 59° 22° (NNE) 12:08:01 2401.200-2431.200
VELOX 1 27 Jun 12:04:11 12:08:18 39° 99° (E) 12:12:25 145.980
O/OREOS (USA 219) 27 Jun 12:11:10 12:14:04 17° 61° (ENE) 12:16:57 437.305
BUGSAT 1 27 Jun 12:27:19 12:31:16 54° 260° (W) 12:35:12 437.445
ESTCUBE 1 27 Jun 12:35:12 12:39:33 50° 286° (WNW) 12:43:52 437.505/2401.250
NANOSAT C BR1 27 Jun 12:41:49 12:44:17 15° 266° (W) 12:46:45 145.865
JAS-2 27 Jun 12:42:12 12:50:01 87° 76° (ENE) 12:57:17 435.910
QB50P1 27 Jun 12:44:27 12:46:32 14° 266° (W) 12:48:39 145.935-145.965
AISAT 27 Jun 12:44:42 12:49:02 61° 285° (WNW) 12:53:22 437.250
Oscar 19 27 Jun 12:46:10 12:50:39 31° 70° (ENE) 12:55:09 437.125/150
POPSAT HIP 1 27 Jun 12:47:48 12:49:39 13° 267° (W) 12:51:30 437.405
TISAT 1 27 Jun 12:48:08 12:49:17 11° 93° (E) 12:50:27 437.305
BEESAT 3 27 Jun 12:49:43 12:53:21 36° 247° (WSW) 12:56:58 437.485
UKube-1 27 Jun 12:51:55 12:56:15 89° 285° (WNW) 13:00:33 .
YUBILEINY 27 Jun 12:53:32 13:02:08 71° 93° (E) 13:10:50 435.215
Gurwin Techsat 1B 27 Jun 12:54:23 12:57:29 16° 65° (ENE) 13:00:34 435.225
SPROUT 27 Jun 12:55:58 13:00:15 70° 101° (ESE) 13:04:31 437.525
Cosmos 2504 27 Jun 12:58:16 13:03:36 20° 80° (E) 13:09:09 435.465 / 435.565
DX 1 27 Jun 13:09:34 13:13:40 42° 287° (WNW) 13:17:44 434.975-435.025
Cosmos 2491 27 Jun 13:13:54 13:21:59 45° 272° (W) 13:30:05 435.465 / 435.565
50 SAT 27 Jun 13:17:47 13:20:15 17° 290° (WNW) 13:22:42 437.505
BEESAT 2 27 Jun 13:25:13 13:28:37 27° 248° (WSW) 13:32:00 435.950
PCSat 27 Jun 13:27:07 13:30:42 18° 255° (WSW) 13:34:18 145.827
RS-15 27 Jun 13:36:58 13:47:30 41° 311° (NW) 13:58:37 29.354- 29.394
CUBEBUG 1 27 Jun 13:37:16 13:39:40 15° 292° (WNW) 13:42:05 437.445
PHONESAT 2.4 27 Jun 13:39:06 13:41:23 19° 216° (SW) 13:43:41 2401.200-2431.200
VELOX 1 27 Jun 13:41:54 13:44:24 15° 293° (WNW) 13:46:54 145.980
O/OREOS (USA 219) 27 Jun 13:49:26 13:53:34 37° 256° (WSW) 13:57:42 437.305
AIST 2 27 Jun 13:56:32 14:00:04 26° 55° (NE) 14:03:35 435.215
SWISSCUBE 27 Jun 14:12:48 14:16:33 22° 96° (E) 14:20:16 437.505
TISAT 1 27 Jun 14:21:06 14:25:08 46° 286° (WNW) 14:29:10 437.305
Oscar 19 27 Jun 14:25:43 14:29:54 25° 264° (W) 14:34:08 437.125/150
JAS-2 27 Jun 14:31:30 14:35:27 15° 268° (W) 14:39:19 435.910
Gurwin Techsat 1B 27 Jun 14:31:44 14:36:54 55° 259° (W) 14:42:08 435.225
BEESAT 27 Jun 14:37:40 14:42:07 38° 99° (E) 14:46:33 436.000
ITUPSAT 1 27 Jun 14:37:53 14:42:21 37° 99° (E) 14:46:46 437.325
AO-7 27 Jun 14:38:27 14:45:47 36° 63° (ENE) 14:53:08 29.400- 29.500
ITAMSAT 1 27 Jun 14:44:18 14:49:28 68° 75° (ENE) 14:54:39 435.822/435.867
Cosmos 2504 27 Jun 14:48:02 14:55:56 70° 278° (W) 15:04:29 435.465 / 435.565
YUBILEINY 27 Jun 14:53:31 14:59:38 21° 290° (WNW) 15:05:49 435.215
MOZHAYETS 4 27 Jun 15:29:12 15:31:15 13° 92° (E) 15:33:18
AIST 2 27 Jun 15:35:09 15:38:23 22° 249° (WSW) 15:41:36 435.215
SO-50 27 Jun 15:44:42 15:49:30 63° 116° (ESE) 15:54:22 436.795
KKS-1 27 Jun 15:46:09 15:49:35 22° 96° (E) 15:53:01 437.445
SWISSCUBE 27 Jun 15:50:08 15:54:18 30° 290° (WNW) 15:58:27 437.505
JUGNU 27 Jun 15:52:13 15:56:12 18° 171° (S) 16:00:10 437.505
RS-15 27 Jun 15:59:22 16:04:50 14° 343° (NNW) 16:10:24 29.354- 29.394
ISS 27 Jun 16:03:07 16:06:16 45° 40° (NE) 16:09:25 145.825
HORYU 2 27 Jun 16:05:47 16:09:12 22° 69° (ENE) 16:12:38 437.375
BEESAT 27 Jun 16:16:18 16:19:34 19° 293° (WNW) 16:22:50 436.000
ITUPSAT 1 27 Jun 16:16:32 16:19:52 19° 293° (WNW) 16:23:11 437.325
STARS 27 Jun 16:21:11 16:24:54 26° 97° (E) 16:28:37 437.465
ITAMSAT 1 27 Jun 16:27:48 16:29:19 11° 268° (W) 16:30:51 435.822/435.867
AO-7 27 Jun 16:30:26 16:38:16 45° 259° (W) 16:46:11 29.400- 29.500
CUBESAT XI-V 27 Jun 16:54:15 16:55:40 11° 92° (E) 16:57:04 437.345
GONETS M04 27 Jun 17:00:06 17:04:06 14° 79° (E) 17:08:05
MOZHAYETS 4 27 Jun 17:04:10 17:08:38 49° 286° (WNW) 17:13:05
SRMSAT 27 Jun 17:05:46 17:08:34 14° 166° (SSE) 17:11:23 437.500
CUTE-I 27 Jun 17:18:01 17:21:51 20° 67° (ENE) 17:25:42 437.470
KKS-1 27 Jun 17:22:21 17:26:05 27° 289° (WNW) 17:29:49 437.445
SO-50 27 Jun 17:27:33 17:30:24 15° 312° (NW) 17:33:16 436.795
AIST 1 27 Jun 17:34:57 17:39:12 56° 278° (W) 17:43:26
BRITE-PL 27 Jun 17:35:13 17:39:58 38° 74° (ENE) 17:44:26 437.365/2234.400
Cosmos 2499 27 Jun 17:38:16 17:43:12 17° 79° (E) 17:48:15 435.465 / 435.565
JUGNU 27 Jun 17:40:10 17:44:34 21° 181° (S) 17:48:58 437.505
ISS 27 Jun 17:41:01 17:42:23 12° 234° (SW) 17:43:43 145.825
HORYU 2 27 Jun 17:41:53 17:45:35 26° 263° (W) 17:49:19 437.375
NOAA 15 27 Jun 17:48:14 17:53:25 58° 74° (ENE) 17:58:37 137.62
LilacSat-2 27 Jun 17:51:20 17:54:41 31° 73° (ENE) 17:58:04 437.200
STARS 27 Jun 17:57:42 18:01:05 22° 291° (WNW) 18:04:28 437.465
NOAA 18 27 Jun 18:07:19 18:12:44 71° 74° (ENE) 18:18:11 137.9125
GOMX 1 27 Jun 18:14:35 18:19:01 41° 75° (ENE) 18:23:13 467.674
RS-15 27 Jun 18:18:38 18:25:16 16° 22° (NNE) 18:31:54 29.354- 29.394
Cubesat XI-IV 27 Jun 18:21:25 18:26:45 85° 76° (ENE) 18:32:08 437.490
CUBESAT XI-V 27 Jun 18:28:49 18:33:20 54° 285° (WNW) 18:37:47 437.345
